Home   Weather   Port-aux-Francais   Past weeks

Flag for French Southern Territories Past Weather in Port-aux-Francais, French Southern Territories — Yesterday and Last 2 Weeks

Now
47 °F

Cool.


Feels Like: 39 °F
Forecast: 40 / 45 °F
Wind: 23 mph from Northwest

Location: Port-Aux-Francais Iles Kerguelen

Current Time: Dec 3, 2016 at 6:57:34 pm

Latest Report: Dec 3, 2016 at 6:00 pm


Visibility: N/A

Pressure: 29.62 "Hg

Humidity: 59%

Dew Point: 34 °F

Location of Port-aux-FrancaisLocation

Past Weather in Port-aux-Francais — Graph

°F

Port-aux-Francais Temperature Yesterday

Maximum temperature yesterday: 51 °F (at 6:00 am)
Minimum temperature yesterday: 40 °F (at 11:00 pm)
Average temperature yesterday: 46 °F

High & Low Weather Summary for the Past Weeks

 TemperatureHumidityPressure
High57 °F (Dec 1, 2:00 pm)96% (Nov 19, 6:00 am)29.97 "Hg (Nov 19, 6:00 am)
Low33 °F (Nov 24, 5:00 am)39% (Nov 24, 1:00 pm)28.76 "Hg (Nov 19, 11:00 pm)
Average44 °F70%29.42 "Hg
* Reported Nov 18 5:00 pm — Dec 3 5:00 pm, Port-aux-Francais, Weather by CustomWeather, © 2016

Note: Actual official high and low records may vary slightly from our data, if they occured in-between our weather recording intervals... More about our weather records

Advertising

Port-aux-Francais Weather History for the Previous 24 Hours

Scroll right to see more
 ConditionsComfort  
Time TempWeatherWind HumidityBarometerVisibility
5:00 pm
Sat, Dec 3
48 °FCool.16 mph51%29.63 "HgN/A
4:00 pm48 °FCool.26 mph49%29.67 "HgN/A
3:00 pm49 °FCool.24 mph51%29.66 "HgN/A
2:00 pm50 °FCool.25 mph58%29.69 "HgN/A
1:00 pm48 °FCool.23 mph60%29.70 "HgN/A
12:00 pm47 °FCool.21 mph54%29.72 "HgN/A
11:00 am49 °FCool.26 mph51%29.72 "HgN/A
10:00 am44 °FQuite cool.25 mph58%29.75 "HgN/A
9:00 am43 °FQuite cool.17 mph54%29.78 "HgN/A
8:00 am43 °FQuite cool.15 mph54%29.78 "HgN/A
6:00 am40 °FQuite cool.15 mph68%29.80 "HgN/A
5:00 am39 °FChilly.14 mph65%29.80 "HgN/A
3:00 am40 °FChilly.16 mph68%29.81 "HgN/A
2:00 am40 °FChilly.16 mph61%29.79 "HgN/A
1:00 am40 °FQuite cool.15 mph66%29.79 "HgN/A
12:00 am40 °FQuite cool.16 mph63%29.79 "HgN/A
11:00 pm
Fri, Dec 2
40 °FChilly.16 mph75%29.78 "HgN/A
10:00 pm41 °FQuite cool.14 mph72%29.78 "HgN/A
8:00 pm44 °FQuite cool.18 mph58%29.73 "HgN/A
7:00 pm45 °FCool.20 mph55%29.71 "HgN/A
6:00 pm46 °FCool.18 mph51%29.70 "HgN/A
Weather by CustomWeather, © 2016

See weather overviewHow to use our weather pages